CZ-2D DEB, 44619

Orbit data source: Space-Track

CZ-2D DEB, 44619 is space debris in SSO originally from a launch on Sat, 02 Jun 2018 UTC launched from the Jiuquan Satellite Launch Center, China (JSC). Debris objects in space refer to the collection of defunct objects orbiting the Earth. Examples of debris include non-operational satellites, rocket bodies, and fragments generated from explosions, collisions, or faulty payload assembly.

Loading next visibility...
Identifier
44619, 2018-048F
Orbit
SSO
Country
Flag of CNCN / PRC
Related business
Manufacturer
CALT
Mission
Spacecraft
Bus & Motor
Unknown
Mass
1 kg wet, 1 kg dry
Launch date (UTC)
2018-06-02 (8 years ago)
Launch vehicle
Unknown
Launch site
Jiuquan Satellite Launch Center, China (JSC)
Object type
Payload
Rocket body
Debris
Shape & HBR
Cone, 0.1 m
Radar Cross Section
0.025 m², Medium (>0.1 m² and < 1m²)

Expand to show TLE details & history
Last TLE update: 2 days ago

TLE from 2 days ago
0 CZ-2D DEB
1 44619U 18048F   26171.31364699  .00004409  00000-0  32145-3 0  9998
2 44619  98.2943  18.9488 0011167 196.3409 163.7456 15.04273268432129
Epoch: 2026-06-20T07:31Z
TLE epoch observation values (Epoch: 2026-06-20T07:31:39.099Z)
Latitude
-0.0001°
Longitude
-2.49416°
Altitude
564.213 km
Speed
7.575 km/s
True Right ascension
01h 15m 47s
True Declination
0° 00' 00"
Sunlit
Object was in daylight at epoch
Visualization orbit readout
Latitude
Unknown
Longitude
Unknown
Altitude
Unknown
Speed
Unknown
Apparent Right ascension
Unknown
Apparent Declination
Unknown
Sunlit
N/A
Visualization observer readout
Local Sidereal Time
21:39:55
Azimuth
Unknown
Elevation
Unknown
Doppler factor
Unknown
Orbital elements
Apogee altitude
558.502 km
Perigee altitude
543.027 km
Semi-major axis
6,928.901 km
Eccentricity
0.00112
Inclination
98.2943°
RAAN
18.9488°
Arg. of periapsis
196.3409°
True anomaly
163.78137°
Mean anomaly
163.7456°
Eccentric anomaly
163.76349°
Mean motion
3.76311 °/min
Orbital period
95.67 mins
BSTAR
0.00032145
Loading maneuver chart data...
Computing Atmospheric mass density...
Loading historical data...
Loading historical data...
Loading historical data...
Loading historical data...
Loading historical data...
Loading historical data...
Loading historical data...
Other satellites on launch #48 in the year 2018 (2018-06-02 UTC)

Documentation

Showing up to 5 results
|